Flag for Canada Weather past 2 weeks in Grande Prairie, Alberta, Canada

Now
46 °F

Partly sunny.


Feels Like: 46 °F
Forecast: 44 / 58 °F
Wind: 2 mph from North

Location: Grande Prairie

Current Time: Oct 20, 2014 at 12:31:27 PM

Latest Report: Oct 20, 2014 at 11:00 AM


Visibility: 25 mi

Pressure: 29.55 "Hg

Humidity: 82%

Dew point: 41 °F

Location of Grande PrairieLocation

Historic Weather in Grande Prairie — Graph

°F

Grande Prairie temperature yesterday

Maximum temperature yesterday: 61 °F (at 5:00 PM)
Minimum temperature yesterday: 32 °F (at 7:00 AM)
Average temperature yesterday: 44 °F

Past Weeks' High & Low Weather Summary

 TemperatureHumidityPressure
High70 °F (Oct 10, 3:00 PM)100% (Oct 6, 2:00 AM)30.14 "Hg (Oct 6, 2:00 AM)
Low25 °F (Oct 15, 7:00 AM)31% (Oct 6, 3:00 PM)29.51 "Hg (Oct 14, 3:00 AM)
Average45 °F74%29.81 "Hg
* Reported Oct 5 11:00 AM — Oct 20 11:00 AM, Grande Prairie, Weather by CustomWeather, © 2014

Note: Actual official high and low records may vary slightly from our data, if they occured in-between our weather recording intervals... More about our weather records

Advertising

Grande Prairie weather history for previous 24 hours

 ConditionsComfort  
Time TempWeatherWind HumidityBarometerVisibility
11:00 AM
Oct 20
46 °FPartly sunny.2 mph82%29.55 "Hg25 mi
10:00 AM43 °FBroken clouds.No wind87%29.57 "Hg25 mi
9:00 AM39 °FPartly cloudy.6 mph93%29.57 "Hg25 mi
8:00 AM39 °FPassing clouds.3 mph87%29.57 "Hg25 mi
7:00 AM36 °FPassing clouds.2 mph93%29.56 "Hg25 mi
6:00 AM37 °FPartly cloudy.2 mph87%29.55 "Hg25 mi
5:00 AM37 °FPassing clouds.5 mph87%29.53 "Hg25 mi
4:00 AM39 °FPassing clouds.7 mph81%29.53 "Hg25 mi
3:00 AM39 °FPassing clouds.5 mph75%29.53 "Hg25 mi
2:00 AM48 °FPassing clouds.3 mph58%29.52 "Hg25 mi
1:00 AM48 °FPassing clouds.6 mph58%29.53 "Hg25 mi
12:00 AM48 °FPassing clouds.5 mph62%29.53 "Hg25 mi
11:00 PM
Oct 19
43 °FPassing clouds.8 mph81%29.54 "Hg25 mi
9:00 PM46 °FPassing clouds.2 mph76%29.56 "Hg25 mi
8:00 PM52 °FPassing clouds.2 mph67%29.55 "Hg25 mi
7:00 PM54 °FPartly sunny.3 mph67%29.55 "Hg25 mi
6:00 PM57 °FPartly sunny.7 mph59%29.55 "Hg25 mi
5:00 PM61 °FScattered clouds.6 mph48%29.56 "Hg25 mi
4:00 PM59 °FScattered clouds.5 mph51%29.57 "Hg25 mi
3:00 PM57 °FScattered clouds.5 mph55%29.60 "Hg25 mi
2:00 PM50 °FBroken clouds.5 mph67%29.62 "Hg25 mi
1:00 PM46 °FPartly sunny.3 mph76%29.64 "Hg25 mi
12:53 PM45 °FPartly sunny.No wind81%29.64 "Hg25 mi
12:00 PM43 °FPartly sunny.5 mph87%29.63 "Hg25 mi
Weather by CustomWeather, © 2014

See weather overviewHow to use our weather pages